Location: Gibsondale
(40.9931°N, 80.2478°W)
Time: 17:05:24
(UTC+00:00)

Cosmos 1689 Rocket - Pass Details

Date: 29 October 2020
Orbit: 360 x 375 km, 97.5° (Epoch: 28 November)

Event Time Altitude Azimuth Distance (km) Brightness Sun altitude
Rises 22:54:38 0° 25° (NNE) 2,204 5.5 -7.2°
Reaches altitude 10° 22:56:48 10° 40° (NE) 1,350 4.4 -7.6°
Maximum altitude 22:59:12 23° 97° (E) 816 3.2 -8.0°
Drops below altitude 10° 23:01:34 10° 153° (SSE) 1,340 4.7 -8.5°
Sets 23:03:43 0° 169° (SSE) 2,181 5.9 -8.9°
